Flag for Germany Weather past 2 weeks in Bocholt, North Rhine-Westphalia, Germany

Now
41 °F

Clear.


Feels Like: 35 °F
Forecast: 44 / 50 °F
Wind: 9 mph from West

Location: Niederrhein

Current Time: Dec 21, 2014 at 1:31:11 AM

Latest Report: Dec 20, 2014 at 11:50 PM


Visibility: 10 mi

Pressure: 30.33 "Hg

Humidity: 93%

Dew point: 39 °F

Location of BocholtLocation

Historic Weather in Bocholt — Graph

°F

Bocholt temperature yesterday

Maximum temperature yesterday: 48 °F (at 2:50 PM)
Minimum temperature yesterday: 41 °F (at 4:50 AM)
Average temperature yesterday: 43 °F

Past Weeks' High & Low Weather Summary

 TemperatureHumidityPressure
High55 °F (Dec 18, 3:50 PM)100% (Dec 5, 11:20 PM)30.36 "Hg (Dec 5, 11:20 PM)
Low34 °F (Dec 7, 7:50 AM)71% (Dec 10, 2:20 PM)29.36 "Hg (Dec 12, 12:20 PM)
Average43 °F95%29.93 "Hg
* Reported Dec 5 11:20 PM — Dec 20 11:50 PM, Bocholt, Weather by CustomWeather, © 2014

Note: Actual official high and low records may vary slightly from our data, if they occured in-between our weather recording intervals... More about our weather records

Advertising

Bocholt weather history for previous 24 hours

 ConditionsComfort  
Time TempWeatherWind HumidityBarometerVisibility
11:50 PM
Dec 20
41 °FClear.9 mph93%30.33 "Hg10 mi
11:20 PM41 °FClear.10 mph93%30.30 "Hg10 mi
10:50 PM41 °FClear.9 mph93%30.30 "Hg10 mi
10:20 PM41 °FClear.8 mph93%30.30 "Hg10 mi
9:50 PM41 °FClear.7 mph93%30.27 "Hg10 mi
9:20 PM43 °FPassing clouds.9 mph87%30.27 "HgN/A
8:50 PM43 °FPassing clouds.10 mph87%30.24 "HgN/A
8:20 PM43 °FPassing clouds.8 mph87%30.24 "HgN/A
7:50 PM43 °FClear.14 mph87%30.21 "Hg10 mi
7:20 PM43 °FClear.15 mph87%30.18 "Hg10 mi
6:50 PM43 °FClear.16 mph87%30.18 "Hg10 mi
6:20 PM43 °FPassing clouds.17 mph87%30.15 "Hg4 mi
5:50 PM43 °FSprinkles. Passing clouds.15 mph93%30.15 "HgN/A
5:20 PM43 °FSprinkles. Scattered clouds.20 mph93%30.12 "Hg4 mi
4:50 PM45 °FSprinkles. Partly sunny.17 mph87%30.12 "Hg4 mi
4:20 PM46 °FSprinkles. Partly sunny.14 mph82%30.09 "HgN/A
3:50 PM46 °FScattered showers. Partly sunny.21 mph82%30.09 "HgN/A
3:20 PM48 °FScattered showers. Partly sunny.23 mph71%30.07 "HgN/A
2:50 PM48 °FScattered clouds.25 mph76%30.07 "HgN/A
2:20 PM46 °FScattered clouds.22 mph82%30.07 "HgN/A
1:50 PM46 °FLight rain. Broken clouds.22 mph82%30.07 "HgN/A
1:20 PM46 °FLight rain. Partly sunny.20 mph82%30.07 "HgN/A
12:50 PM45 °FLight rain. Partly sunny.17 mph93%30.07 "Hg5 mi
12:20 PM45 °FLight rain. Partly sunny.20 mph93%30.09 "Hg4 mi
11:50 AM45 °FLight rain. Partly sunny.18 mph87%30.09 "Hg5 mi
11:20 AM45 °FLight rain. Partly sunny.18 mph87%30.09 "HgN/A
10:50 AM45 °FBroken clouds.21 mph87%30.09 "HgN/A
10:20 AM43 °FPartly sunny.17 mph93%30.09 "HgN/A
9:50 AM43 °FScattered clouds.16 mph93%30.09 "HgN/A
9:20 AM43 °FPassing clouds.17 mph93%30.09 "HgN/A
8:50 AM43 °FPassing clouds.18 mph93%30.09 "HgN/A
8:20 AM43 °FPassing clouds.17 mph93%30.09 "HgN/A
7:50 AM43 °FPassing clouds.16 mph87%30.12 "HgN/A
7:20 AM41 °FClear.17 mph93%30.09 "Hg10 mi
6:50 AM43 °FPassing clouds.18 mph87%30.12 "HgN/A
6:20 AM41 °FClear.15 mph93%30.12 "Hg10 mi
5:50 AM41 °FClear.16 mph93%30.12 "Hg10 mi
5:20 AM41 °FPassing clouds.15 mph93%30.12 "HgN/A
4:50 AM41 °FClear.16 mph93%30.12 "Hg10 mi
Weather by CustomWeather, © 2014

See weather overviewHow to use our weather pages